Location: ???????
(38.3360°N, 23.6977°E)
Time: 20:35:46
(UTC+00:00)

Cosmos 489 Rocket - Pass Details

Date: 17 November 2025
Orbit: 952 x 982 km, 74.0° (Epoch: 11 December)

Event Time Altitude Azimuth Distance (km) Brightness Sun altitude
Rises 16:51:24 0° 344° (NNW) 3,658 7.6 -19.6°
Reaches altitude 10° 16:53:59 10° 348° (NNW) 2,704 6.8 -20.1°
Maximum altitude 17:00:10 62° 69° (ENE) 1,071 4.4 -21.3°
Drops below altitude 10° 17:06:17 10° 150° (SSE) 2,672 6.6 -22.5°
Enters shadow 17:08:30 - 153° (SSE) 3,492 7.2 -22.9°
